Date String (YYYY-MM-DD hh:mm:ss) UTC,Instrument flags,Ambient pressure (hPa),Sample flow (lpm),Bypass flow (lpm),Sample temperature (°C),Ambient temperature (°C),ASC tube jacket temperature (°C),LED temperature (°C),Box temperature (°C),Sample RH (%),Span deviation,Mass concentration (μg/m³),Mass concentration (μg/m³),Mass concentration (μg/m³)
DateTimeUTC,F1_M11,P_M11,Q1_M11,Q2_M11,T1_M11,T2_M11,T3_M11,T4_M11,T5_M11,U1_M11,ZSPAN_M11,X0_M11,X2_M11,X1_M11
2021-08-26 15:00:00,,0830.4,4.99,0.00,32.2,27.2,00.0,40.9,32.1,34.1,0001.3,0026.74,0012.14,0009.95
2021-08-26 15:01:00,,0830.4,5.00,0.00,32.0,26.7,00.0,40.8,32.0,34.1,0001.3,0026.76,0012.17,0009.98
2021-08-26 15:02:00,,0830.3,5.01,0.00,31.9,27.0,00.0,40.8,32.0,34.1,0001.2,0026.42,0012.23,0010.00
2021-08-26 15:03:00,,0830.4,5.00,0.00,31.8,27.4,00.0,40.7,32.0,34.2,0001.2,0026.66,0012.24,0009.98
2021-08-26 15:04:00,,0830.4,5.00,0.00,31.7,27.8,00.0,40.6,32.1,34.2,0001.3,0026.26,0012.22,0009.95
2021-08-26 15:05:00,,0830.4,5.01,0.00,31.6,28.1,00.0,40.6,32.1,34.5,0001.2,0025.55,0012.11,0009.88
2021-08-26 15:06:00,,0830.4,5.00,0.00,31.6,28.4,00.0,40.5,32.1,34.8,0000.9,0025.62,0012.06,0009.83
2021-08-26 15:07:00,,0830.4,4.99,0.00,31.6,28.6,00.0,40.5,32.2,35.3,0000.7,0025.84,0012.00,0009.78
2021-08-26 15:08:00,,0830.4,5.01,0.00,31.7,28.8,00.0,40.5,32.4,34.7,0000.7,0025.60,0011.95,0009.71
2021-08-26 15:09:00,,0830.4,5.00,0.00,31.9,28.9,00.0,40.5,32.5,33.9,0000.7,0025.89,0011.89,0009.65
2021-08-26 15:10:00,,0830.4,5.00,0.00,31.9,29.0,00.0,40.4,32.5,33.3,0000.4,0026.70,0011.85,0009.57
2021-08-26 15:11:00,,0830.4,5.01,0.00,32.0,29.1,00.0,40.4,32.5,33.1,0000.4,0026.07,0011.86,0009.50
2021-08-26 15:12:00,,0830.5,4.99,0.00,32.0,29.2,00.0,40.5,32.5,33.3,0000.1,0024.97,0011.77,0009.44
2021-08-26 15:13:00,,0830.5,5.00,0.00,32.0,29.3,00.0,40.5,32.5,34.1,-000.3,0024.86,0011.73,0009.36
2021-08-26 15:14:00,,0830.5,5.00,0.00,31.9,28.4,00.0,40.5,32.3,34.4,-000.2,0023.76,0011.66,0009.33
2021-08-26 15:15:00,,0830.6,5.00,0.00,31.8,27.0,00.0,40.5,31.9,34.1,-000.3,0024.01,0011.62,0009.35
2021-08-26 15:16:00,,0830.6,5.00,0.00,31.6,26.7,00.0,40.4,31.8,34.6,-000.1,0024.11,0011.56,0009.36
2021-08-26 15:17:00,,0830.6,5.00,0.00,31.5,27.0,00.0,40.4,31.9,35.5,0000.4,0023.64,0011.61,0009.38
2021-08-26 15:18:00,,0830.6,5.02,0.00,31.6,27.4,00.0,40.4,32.0,35.9,0000.7,0023.34,0011.62,0009.40
2021-08-26 15:19:00,,0830.7,5.00,0.00,31.8,27.8,00.0,40.3,32.2,35.3,0000.6,0023.41,0011.59,0009.40
2021-08-26 15:20:00,,0830.8,5.00,0.00,32.2,28.1,00.0,40.3,32.4,34.5,0000.6,0024.22,0011.56,0009.39
2021-08-26 15:21:00,,0830.8,5.00,0.00,32.4,28.3,00.0,40.3,32.5,32.6,0000.9,0023.79,0011.49,0009.37
2021-08-26 15:22:00,,0830.8,4.99,0.00,32.5,28.6,00.0,40.3,32.4,32.6,0001.2,0023.48,0011.38,0009.34
2021-08-26 15:23:00,,0830.8,5.01,0.00,32.5,28.7,00.0,40.4,32.5,32.0,0001.3,0023.58,0011.32,0009.32
2021-08-26 15:24:00,,0830.7,4.99,0.00,32.5,28.9,00.0,40.5,32.5,31.4,0001.7,0022.71,0011.19,0009.29
2021-08-26 15:25:00,,0830.8,5.00,0.00,32.5,29.0,00.0,40.5,32.5,32.2,0001.5,0022.27,0011.11,0009.26
2021-08-26 15:26:00,,0830.8,5.00,0.00,32.5,29.2,00.0,40.6,32.6,30.6,0001.3,0021.90,0011.03,0009.17
2021-08-26 15:27:00,,0830.8,5.00,0.00,32.4,29.2,00.0,40.7,32.6,29.4,0001.2,0021.84,0010.95,0009.02
2021-08-26 15:28:00,,0830.8,5.00,0.00,32.4,28.1,00.0,40.7,32.3,29.5,0001.1,0021.23,0010.74,0008.89
2021-08-26 15:29:00,,0830.8,5.00,0.00,32.2,26.7,00.0,40.7,31.9,29.5,0000.8,0020.70,0010.53,0008.75
2021-08-26 15:30:00,,0830.7,5.00,0.00,32.1,26.5,00.0,40.7,31.8,31.7,0000.8,0020.07,0010.40,0008.66
2021-08-26 15:31:00,,0830.8,5.00,0.00,31.9,26.8,00.0,40.6,31.9,33.1,0001.0,0018.81,0010.35,0008.63
2021-08-26 15:32:00,,0830.8,5.00,0.00,31.8,27.3,00.0,40.6,31.9,34.8,0000.5,0019.88,0010.42,0008.62
2021-08-26 15:33:00,,0830.8,5.00,0.00,31.8,27.7,00.0,40.5,32.0,36.4,0000.2,0020.92,0010.48,0008.66
2021-08-26 15:34:00,,0830.8,4.99,0.00,32.0,28.0,00.0,40.5,32.3,36.4,0000.4,0021.81,0010.55,0008.72
2021-08-26 15:35:00,,0830.7,5.01,0.00,32.3,28.3,00.0,40.5,32.5,35.9,0000.5,0022.97,0010.61,0008.73
2021-08-26 15:36:00,,0830.8,4.99,0.00,32.7,28.5,00.0,40.5,32.6,35.1,0000.8,0023.30,0010.66,0008.72
2021-08-26 15:37:00,,0830.9,5.01,0.00,33.0,28.7,00.0,40.5,32.7,34.4,0001.1,0023.32,0010.68,0008.75
2021-08-26 15:38:00,,0830.9,5.00,0.00,33.1,28.9,00.0,40.6,32.7,34.3,0001.1,0022.97,0010.77,0008.83
2021-08-26 15:39:00,,0830.9,5.00,0.00,33.2,29.0,00.0,40.7,32.7,34.1,0000.7,0023.96,0010.92,0008.93
2021-08-26 15:40:00,,0830.9,5.00,0.00,33.2,29.1,00.0,40.8,32.7,34.4,0000.8,0024.71,0011.05,0009.02
2021-08-26 15:41:00,,0831.0,4.99,0.00,33.2,29.2,00.0,40.9,32.7,33.9,0000.9,0025.61,0011.18,0009.07
2021-08-26 15:42:00,,0830.9,5.01,0.00,33.1,28.7,00.0,40.9,32.5,34.0,0000.8,0026.70,0011.23,0009.11
2021-08-26 15:43:00,,0831.0,4.98,0.00,33.0,27.2,00.0,41.0,32.1,34.0,0001.1,0026.85,0011.22,0009.15
2021-08-26 15:44:00,,0830.9,5.00,0.00,32.8,26.6,00.0,41.0,32.0,34.2,0001.2,0026.88,0011.20,0009.18
2021-08-26 15:45:00,,0830.9,5.00,0.00,32.6,26.7,00.0,41.0,32.0,34.8,0001.0,0026.02,0011.20,0009.16
2021-08-26 15:46:00,,0830.9,5.01,0.00,32.5,27.1,00.0,41.0,32.1,34.4,0000.4,0025.34,0011.25,0009.17
2021-08-26 15:47:00,,0831.0,5.00,0.00,32.3,27.6,00.0,40.9,32.1,33.8,0000.0,0026.18,0011.27,0009.19
2021-08-26 15:48:00,,0831.0,4.99,0.00,32.3,27.9,00.0,40.9,32.2,33.3,-000.0,0027.59,0011.28,0009.20
2021-08-26 15:49:00,,0831.0,5.01,0.00,32.2,28.2,00.0,40.9,32.2,33.6,-000.2,0028.06,0011.29,0009.22
2021-08-26 15:50:00,,0831.0,5.00,0.00,32.2,28.5,00.0,40.8,32.3,32.8,-000.1,0027.71,0011.26,0009.22
2021-08-26 15:51:00,,0830.9,5.01,0.00,32.1,28.7,00.0,40.8,32.4,32.5,-000.1,0027.48,0011.24,0009.22
2021-08-26 15:52:00,,0831.0,5.00,0.00,32.1,28.9,00.0,40.8,32.4,32.6,-000.3,0026.75,0011.27,0009.24
2021-08-26 15:53:00,,0831.0,5.00,0.00,32.0,29.0,00.0,40.8,32.4,32.2,-000.5,0025.63,0011.25,0009.24
2021-08-26 15:54:00,,0831.0,5.00,0.00,32.0,28.8,00.0,40.8,32.4,32.3,-000.1,0023.90,0011.18,0009.22
2021-08-26 15:55:00,,0830.9,5.00,0.00,31.9,27.4,00.0,40.7,32.0,32.9,-000.1,0022.93,0011.11,0009.15
2021-08-26 15:56:00,,0830.9,5.00,0.00,31.7,26.5,00.0,40.6,31.7,32.6,0000.3,0023.05,0011.08,0009.14
2021-08-26 15:57:00,,0830.9,5.00,0.00,31.6,26.5,00.0,40.6,31.7,33.3,0000.8,0023.96,0011.11,0009.15
2021-08-26 15:58:00,,0830.9,5.01,0.00,31.4,26.9,00.0,40.5,31.7,33.7,0000.8,0023.76,0011.07,0009.13
2021-08-26 15:59:00,,0830.9,4.99,0.00,31.3,27.3,00.0,40.4,31.8,33.5,0000.6,0022.58,0011.09,0009.13
